Location: Catstown
(52.4386°N, 7.2633°W)
Time: 11:15:28
(UTC+00:00)

Cosmos 1833 Rocket - Pass Details

Date: 17 January 2021
Orbit: 833 x 839 km, 71.0° (Epoch: 24 February)

Event Time Altitude Azimuth Distance (km) Brightness Sun altitude
Rises 22:03:03 0° 323° (NW) 3,393 6.5 -46.2°
Reaches altitude 10° 22:05:48 10° 312° (NW) 2,454 5.6 -46.5°
Enters shadow 22:05:59 11° 311° (NW) 2,397 5.6 -46.5°
